Location: St. Louis
(38.6270°N, 90.1994°W)
Time: 07:52:18
(UTC-06:00)

Tiangong - Visible Passes

Search period start: 13 December 2025 00:00
Search period end: 23 December 2025 00:00
Orbit: 384 x 395 km, 41.5° (Epoch: 12 December)

Date Brightness Start Highest point End Pass type
(mag) Time Alt. Az. Time Alt. Az. Time Alt. Az.
19 Dec 0.6 18:33:45 10° S 18:34:09 11° S 18:34:09 11° S visible
20 Dec 1.1 19:10:49 10° SW 19:11:10 12° SW 19:11:10 12° SW visible
21 Dec -0.8 18:12:53 10° SSW 18:15:36 26° SSE 18:15:46 26° SE visible
22 Dec 0.1 17:15:22 10° S 17:17:22 16° SE 17:19:22 10° ESE visible
22 Dec -0.2 18:50:47 10° WSW 18:52:34 30° WSW 18:52:34 30° WSW visible
